Location: Cutler
(25.6150°N, 80.3110°W)
Time: 21:35:05
(UTC-04:00)

Cosmos 2360 Rocket - Visible Passes

Search period start: 21 October 2014 00:00
Search period end: 31 October 2014 00:00
Orbit: 833 x 847 km, 71.0° (Epoch: 20 October)

Date Brightness Start Highest point End Pass type
(mag) Time Alt. Az. Time Alt. Az. Time Alt. Az.
21 Oct 3.9 04:35:06 28° E 04:35:06 28° E 04:38:54 10° SE visible
21 Oct 3.1 06:17:01 24° W 06:17:45 24° WSW 06:22:09 10° SSW visible
21 Oct 4.1 19:11:18 10° SW 19:16:17 32° WNW 19:21:18 10° N visible
22 Oct 4.6 04:21:49 16° ESE 04:21:49 16° ESE 04:23:10 10° SE visible
22 Oct 3.4 06:03:42 23° SW 06:03:42 23° SW 06:06:45 10° SSW visible
23 Oct 4.0 05:50:11 15° SSW 05:50:11 15° SSW 05:51:19 10° SSW visible
